User: anonymous   Login
Location: Unspecified
(0.0000°N, 0.0000°E)
Time: 18:53:28
(UTC+00:00)
Language:

CBERS-1 - Orbit

View from above orbital plane
View from above orbital plane
View from above satellite
View from above satellite

Ground track
Ground track

The orbit data is extracted from the following two-line orbital elements,

1 25940U 99057A   19340.75583066 +.00000020 +00000-0 +22510-4 0  9993
2 25940 098.5861 281.1223 0004659 190.3153 169.7938 14.35484727055305
Epoch (UTC): 06 December 2019 18:08:23
Eccentricity: 0.0004659
inclination: 98.5861°
perigee height: 770 km
apogee height: 777 km
right ascension of ascending node: 281.1223°
argument of perigee: 190.3153°
revolutions per day: 14.35484727
mean anomaly at epoch: 169.7938°
orbit number at epoch: 5530

The dashed part of the orbit path shows where the satellite is in the earth's shadow,  

DLR